Regional Weather Roundup
Issued by NWS Cleveland, OH

Home | Current Version | Previous Version | Graphics & Text | Print | Product List | Glossary On
Versions: 1 2 3 4 5 6 7 8 9 10 11 12 13 14 15 16 17 18 19 20 21 22 23 24 25 26 27 28 29 30 31 32 33 34 35 36 37 38 39 40 41 42 43 44 45 46 47 48 49 50
000
ASUS41 KCLE 222000
RWRCLE
OHIO REGIONAL WEATHER ROUNDUP
NATIONAL WEATHER SERVICE WILMINGTON, OH
400 PM EDT WED OCT 22 2014

NOTE: "FAIR" INDICATES FEW OR NO CLOUDS BELOW 12,000 FEET WITH NO
SIGNIFICANT WEATHER AND/OR OBSTRUCTIONS TO VISIBILITY.

OHZ001>008-015>018-024>027-034-035-043-044-222100-
   NORTHWEST OHIO

CITY           SKY/WX    TMP DP  RH WIND       PRES   REMARKS
DEFIANCE       CLOUDY    49  40  71 N7        30.32S
FINDLAY        CLOUDY    51  41  68 N7        30.28F
TOLEDO EXPRESS PTSUNNY   52  40  63 VRB7      30.29F
TOLEDO METCALF PTSUNNY   53  40  61 NW6       30.29F
LIMA           CLOUDY    49  40  71 NE10      30.29F
$$

OHZ009>014-019>023-028>033-038-089-222100-
   NORTHEAST OHIO

CITY           SKY/WX    TMP DP  RH WIND       PRES   REMARKS
CLE-HOPKINS    CLOUDY    50  42  74 N10       30.27S
CLE-LAKEFRONT  CLOUDY    52  43  71 N14       30.24S
CUY CO. ARPT   CLOUDY    52  45  76 NE15      30.25S
LORAIN-ELYRIA  CLOUDY    51  42  71 N10       30.26S
ASHTABULA      CLOUDY    49  41  74 VRB6      30.24R
AKRON-CANTON   CLOUDY    50  40  68 N13       30.22R
WOOSTER        NOT AVBL
MANSFIELD      CLOUDY    49  41  74 N8        30.25R
YOUNGSTOWN     CLOUDY    49  42  77 N14       30.21R
$$

OHZ042-051>053-060>062-070>072-077>081-222100-
  SOUTHWEST OHIO

CITY           SKY/WX    TMP DP  RH WIND       PRES   REMARKS
CINC-COVINGTON PTSUNNY   53  39  59 N8        30.27S
CINC-LUNKEN    CLOUDY    53  41  63 NE8       30.29S
HAMILTON       CLOUDY    54  41  61 N6        30.29S
DAYTON         NOT AVBL
WRIGHT-PAT AFB CLOUDY    51  41  69 NE9       30.27S
DAYTON GENERAL CLOUDY    51  41  68 N9        30.27S
WILMINGTON     CLOUDY    50  40  68 N10       30.25F
$$

OHZ036-037-039>041-045>050-054>059-063>069-073>076-082>088-222100-
  CENTRAL AND SOUTHEAST OHIO

CITY           SKY/WX    TMP DP  RH WIND       PRES   REMARKS
COLUMBUS       CLOUDY    50  41  71 N10       30.25S
OSU AIRPORT    CLOUDY    50  41  71 N12       30.26S
BOLTON FIELD   CLOUDY    48  43  81 NW12      30.26
RICKENBACK AFB NOT AVBL
NEWARK         CLOUDY    50  41  71 N9        30.24S
MARION         CLOUDY    50  41  71 N13       30.27S
LANCASTER      CLOUDY    50  41  71 N9        30.25S
ZANESVILLE     CLOUDY    50  41  71 N7        30.22S
NEW PHILLY     CLOUDY    52  42  69 N9        30.22R
$$



USA.gov is the U.S. government's official web portal to all federal, state and local government web resources and services.